Regional Weather Roundup
Issued by NWS

Home | Current Version | Previous Version | Text Only | Print | Product List | Glossary Off
Versions: 1 2 3 4 5 6 7 8 9 10 11 12 13 14 15 16 17 18 19 20 21 22 23 24 25 26 27 28 29 30 31 32 33 34 35 36 37 38 39 40 41 42 43 44 45 46 47 48 49 50

182
ASUS43 KIND 290209
RWRIN

WEATHER ROUNDUP FOR INDIANA
NATIONAL WEATHER SERVICE INDIANAPOLIS IN
1000 PM EDT WED SEP 28 2016

NOTE: "FAIR" INDICATES FEW OR NO CLOUDS BELOW 12,000 FEET WITH NO
SIGNIFICANT WEATHER AND/OR OBSTRUCTIONS TO VISIBILITY.

* - STATION DOES NOT REPORT WEATHER SUCH AS PRECIPITATION OR FOG.

+ - STATION NOT QUALITY CONTROLLED BY THE NATIONAL WEATHER SERVICE.
    USE DATA WITH CAUTION...ESPECIALLY DEWPOINT AND RELATIVE
    HUMIDITY OBSERVATIONS.

INZ001>003-010>013-019-020-290300-
NORTHWEST INDIANA

CITY           SKY/WX    TMP DP  RH WIND       PRES   REMARKS
GARY /AIRPORT/ CLOUDY    61  55  82 NE23      30.03S
KNOX *+        CLOUDY    54  37  54 N3        30.00R
LA PORTE +     CLOUDY    59  55  86 NE10      30.02R
MICHIGAN CITY+ CLOUDY    57  50  77 CALM      30.03R
MONTICELLO +   CLOUDY    54  49  82 NW3       29.99S
RENSSELAER +   RAIN      54  54 100 NW6       30.01S
VALPARAISO     PTCLDY    57  50  77 NE7       30.02R

$$

LMZ046-743>745-290300-
SOUTHERN LAKE MICHIGAN

STATION/POSITION TIME  TEMP    WIND        PRES    WAVE
                       AIR SEA DIR/SP/G            HT
                 (UTC) (F)     (DEG/KT/KT) (MB)    (FT)
BURNS HARBOR     0140   61      50/ 26/ 29 1016.6R
MICHIGAN CITY    0140   60      30/ 26/ 29   N/A
5NW MICH CITY    0200   61 66   50/ 19/ 27   N/A     7

$$

INZ004-005-014>016-021>024-290300-
NORTH CENTRAL INDIANA

CITY           SKY/WX    TMP DP  RH WIND       PRES   REMARKS
GOSHEN         LGT RAIN  55  52  89 N8        29.97S
LOGANSPORT +   CLOUDY    52  50  93 NW3       29.99S
PERU/GRISSOM   MOCLDY    55  51  88 N6        29.96S
ROCHESTER +    CLOUDY    55  55 100 N6        29.98S
SOUTH BEND     CLOUDY    55  53  93 N10       30.02R
WARSAW +       CLOUDY    54  54 100 NW5       29.97S

$$

INZ006>009-017-018-025>027-290300-
NORTHEAST INDIANA

CITY           SKY/WX    TMP DP  RH WIND       PRES   REMARKS
ANGOLA *+        N/A     54  41  62 SE6       29.98R
AUBURN +       CLOUDY    54  52  94 N3        29.96S
FORT WAYNE     MOCLDY    55  53  93 CALM      29.96R
HUNTINGTON +   MOCLDY    53  51  95 CALM      29.96S
KENDALLVILLE + RAIN      55  54  97 NE12      29.96S

$$

INZ028-029-035-036-043>045-051>053-290300-
WEST CENTRAL INDIANA

CITY           SKY/WX    TMP DP  RH WIND       PRES   REMARKS
CRAWFORDSVL +  CLOUDY    53  52  96 NW7       30.00S
GREENCASTLE +  CLOUDY    54  52  94 NW3       30.01R
LAFAYETTE      NOT AVBL
TERRE HAUTE    CLOUDY    57  48  72 NW10      30.02R

$$

INZ030>032-037>040-046>048-054>057-064-065-290300-
CENTRAL INDIANA

CITY           SKY/WX    TMP DP  RH WIND       PRES   REMARKS
COLUMBUS       PTCLDY    55  55 100 W6        29.98
FRANKFORT +    CLOUDY    58  53  84 NW5       30.01R
GREENWOOD *+   CLOUDY    55  54  94 CALM      29.98S
INDIANAPOLIS   MOCLDY    54  49  83 NW7       29.98R
-EAGLE CREEK   CLOUDY    57  50  77 NW8       29.98R
KOKOMO *+      CLOUDY    55  52  88 NW6       29.98S
MARION +       CLOUDY    54  50  88 CALM      29.97S
MT COMFORT *+  CLOUDY    55  52  88 NW5       29.98R
SHELBYVILLE    CLOUDY    56  51  84 NW7       29.97R
ZIONSVILLE +   CLOUDY    54  49  85 NW5       29.99R

$$

INZ033-034-041-042-049-050-058-059-290300-
EAST CENTRAL INDIANA

CITY           SKY/WX    TMP DP  RH WIND       PRES   REMARKS
MUNCIE         CLOUDY    54  52  93 NW5       29.96R

$$

INZ060-061-067>069-081>083-085>088-290300-
SOUTHWEST INDIANA

CITY           SKY/WX    TMP DP  RH WIND       PRES   REMARKS
EVANSVILLE     PTCLDY    56  46  69 W6        30.05R
HUNTINGBURG *+   N/A     55  45  67 NW8       30.02S
WASHINGTON +   CLOUDY    57  49  75 MISG      30.02R

$$

INZ062-063-066-070>080-084-089>092-290300-
SOUTH CENTRAL AND SOUTHEAST INDIANA

CITY           SKY/WX    TMP DP  RH WIND       PRES   REMARKS
BLOOMINGTON    CLOUDY    56  48  74 NW5       30.00R
MADISON *+     PTCLDY    54  50  87 CALM      30.00R
NORTH VERNON + CLOUDY   N/A N/A N/A W6        29.98R
SEYMOUR +      CLOUDY    57  52  82 NW5       29.98R

$$





USA.gov is the U.S. government's official web portal to all federal, state and local government web resources and services.